HADES-ICM

Last updated on Mon Sep 15 2025 00:03:10 GMT+0000 (Coordinated Universal Time)

1 63492U 25052BN 25256.95305530 .00025780 00000+0 94852-3 0 9990 2 63492 97.4161 150.2530 0012823 48.7413 311.4929 15.27774137 27948
UTC large
Height (km)
Speed (km/s)
/
Latitude / Longitude
Inclination (degrees)
Orbital Period (minutes)
Azimuth
Elevation
Range (km)
Doppler Factor

Next 0 passes for location: London (51.5072 / 0.1276)

Sorry there are no passes over London.